| time (UTC) | temp F | wind direction | speed knots | gust knots | rain 1hr in | rain 24hr in | rain mn in | humidity % | barometer mb |
| 20260505014020 | 84 | 319 | 1.7 | 36.5 | 0.00 | 0.00 | 0.00 | 100 | 1012.1 |
| 20260505013015 | 84 | 299 | 2.6 | 36.5 | 0.00 | 0.00 | 0.00 | 100 | 1012.1 |
| 20260505012017 | 84 | 291 | 2.6 | 36.5 | 0.00 | 0.00 | 0.00 | 100 | 1012.1 |
| 20260505011017 | 83 | 282 | 2.6 | 37.4 | 0.00 | 0.00 | 0.00 | 100 | 1011.7 |
| 20260505010039 | 83 | 286 | 2.6 | 36.5 | 0.00 | 0.00 | 0.00 | 100 | 1011.4 |
| 20260505005039 | 83 | 265 | 2.6 | 38.2 | 0.00 | 0.00 | 0.00 | 100 | 1011.2 |
| 20260505004020 | 83 | 271 | 1.7 | 31.3 | 0.00 | 0.00 | 0.00 | 100 | 1011.0 |
| 20260505003021 | 82 | 275 | 2.6 | 36.5 | 0.00 | 0.00 | 0.00 | 100 | 1011.0 |
| 20260505002017 | 82 | 269 | 2.6 | 36.5 | 0.00 | 0.00 | 0.00 | 100 | 1010.7 |
| 20260505001017 | 82 | 272 | 2.6 | 40.0 | 0.00 | 0.00 | 0.00 | 100 | 1010.6 |
| 20260505000039 | 82 | 266 | 2.6 | 40.8 | 0.00 | 0.00 | 0.00 | 100 | 1010.5 |
| 20260504235018 | 81 | 258 | 1.7 | 13.9 | 0.00 | 0.00 | 0.00 | 100 | 1010.4 |
| 20260504234019 | 81 | 267 | 1.7 | 33.9 | 0.00 | 0.00 | 0.00 | 100 | 1010.4 |
| 20260504233020 | 81 | 262 | 2.6 | 37.4 | 0.00 | 0.00 | 0.00 | 100 | 1010.4 |
| 20260504232015 | 82 | 266 | 1.7 | 35.6 | 0.00 | 0.00 | 0.00 | 100 | 1010.4 |
| 20260504231037 | 82 | 264 | 2.6 | 39.1 | 0.00 | 0.00 | 0.00 | 100 | 1010.3 |
| 20260504230017 | 81 | 268 | 1.7 | 30.4 | 0.00 | 0.00 | 0.00 | 100 | 1010.2 |
| 20260504225018 | 82 | 274 | 1.7 | 35.6 | 0.00 | 0.00 | 0.00 | 100 | 1010.1 |
| 20260504224019 | 81 | 304 | 2.6 | 37.4 | 0.00 | 0.00 | 0.00 | 100 | 1009.9 |
| 20260504223021 | 82 | 329 | 2.6 | 39.1 | 0.00 | 0.00 | 0.00 | 100 | 1009.8 |
| 20260504222016 | 82 | 344 | 1.7 | 34.8 | 0.00 | 0.00 | 0.00 | 100 | 1009.7 |
| 20260504221039 | 81 | 317 | 1.7 | 14.8 | 0.00 | 0.00 | 0.00 | 100 | 1009.6 |
| 20260504215038 | 82 | 333 | 2.6 | 39.1 | 0.00 | 0.00 | 0.00 | 100 | 1009.4 |
| 20260504214018 | 82 | 329 | 2.6 | 40.8 | 0.00 | 0.00 | 0.00 | 100 | 1009.5 |
| 20260504213020 | 82 | 308 | 2.6 | 37.4 | 0.00 | 0.00 | 0.00 | 100 | 1009.6 |
| 20260504212040 | 82 | 273 | 2.6 | 37.4 | 0.00 | 0.00 | 0.00 | 100 | 1009.5 |
| 20260504211037 | 82 | 277 | 2.6 | 38.2 | 0.00 | 0.00 | 0.00 | 100 | 1009.4 |
| 20260504210017 | 82 | 295 | 2.6 | 38.2 | 0.00 | 0.00 | 0.00 | 100 | 1009.5 |
| 20260504205018 | 82 | 273 | 1.7 | 35.6 | 0.00 | 0.00 | 0.00 | 100 | 1009.6 |
| 20260504204018 | 82 | 262 | 1.7 | 33.0 | 0.00 | 0.00 | 0.00 | 100 | 1009.7 |
| 20260504203020 | 82 | 267 | 2.6 | 40.8 | 0.00 | 0.00 | 0.00 | 100 | 1009.7 |
| 20260504202021 | 82 | 258 | 2.6 | 36.5 | 0.00 | 0.00 | 0.00 | 100 | 1009.7 |
| 20260504201016 | 82 | 248 | 2.6 | 39.1 | 0.00 | 0.00 | 0.00 | 100 | 1009.8 |
| 20260504200017 | 83 | 253 | 1.7 | 29.5 | 0.00 | 0.00 | 0.00 | 100 | 1009.9 |
| 20260504195018 | 83 | 254 | 1.7 | 36.5 | 0.00 | 0.00 | 0.00 | 100 | 1009.9 |
| 20260504194018 | 83 | 292 | 2.6 | 37.4 | 0.00 | 0.00 | 0.00 | 100 | 1010.0 |
| 20260504193019 | 83 | 345 | 1.7 | 35.6 | 0.00 | 0.00 | 0.00 | 100 | 1010.2 |
| 20260504192020 | 83 | 349 | 1.7 | 36.5 | 0.00 | 0.00 | 0.00 | 100 | 1010.3 |
| 20260504191037 | 83 | 354 | 1.7 | 35.6 | 0.00 | 0.00 | 0.00 | 100 | 1010.3 |
| 20260504190017 | 83 | 348 | 2.6 | 36.5 | 0.00 | 0.00 | 0.00 | 100 | 1010.3 |
| 20260504185017 | 83 | 353 | 2.6 | 38.2 | 0.00 | 0.00 | 0.00 | 100 | 1010.4 |
| 20260504184019 | 83 | 346 | 2.6 | 37.4 | 0.00 | 0.00 | 0.00 | 100 | 1010.6 |
| 20260504183040 | 83 | 327 | 1.7 | 35.6 | 0.00 | 0.00 | 0.00 | 100 | 1010.8 |
| 20260504182020 | 83 | 342 | 2.6 | 38.2 | 0.00 | 0.00 | 0.00 | 100 | 1010.8 |
| 20260504181016 | 84 | 343 | 2.6 | 37.4 | 0.00 | 0.00 | 0.00 | 100 | 1010.9 |
| 20260504180017 | 84 | 342 | 1.7 | 34.8 | 0.00 | 0.00 | 0.00 | 100 | 1011.0 |
| 20260504175018 | 84 | 344 | 1.7 | 34.8 | 0.00 | 0.00 | 0.00 | 100 | 1011.2 |
| 20260504174019 | 84 | 346 | 2.6 | 36.5 | 0.00 | 0.00 | 0.00 | 100 | 1011.5 |
| 20260504173019 | 84 | 343 | 1.7 | 33.0 | 0.00 | 0.00 | 0.00 | 100 | 1011.6 |
| 20260504172101 | 84 | 340 | 1.7 | 31.3 | 0.00 | 0.00 | 0.00 | 100 | 1011.7 |
| 20260504171016 | 84 | 328 | 1.7 | 15.6 | 0.00 | 0.00 | 0.00 | 100 | 1011.8 |
| 20260504151022 | 85 | 252 | 2.6 | 37.4 | 0.00 | 0.00 | 0.00 | 100 | 1011.3 |
| 20260504141020 | 87 | 329 | 2.6 | 37.4 | 0.00 | 0.00 | 0.00 | 100 | 1010.5 |
| 20260504081040 | 92 | 318 | 1.7 | 34.8 | 0.00 | 0.00 | 0.00 | 100 | 1008.6 |
| 20260504050016 | 94 | 306 | 2.6 | 40.0 | 0.00 | 0.00 | 0.00 | 99 | 1011.6 |
| 20260504045017 | 94 | 327 | 1.7 | 29.5 | 0.00 | 0.00 | 0.00 | 100 | 1011.7 |
| 20260504044037 | 93 | 318 | 1.7 | 35.6 | 0.00 | 0.00 | 0.00 | 100 | 1011.8 |
| 20260504043018 | 93 | 307 | 1.7 | 23.5 | 0.00 | 0.00 | 0.00 | 100 | 1011.9 |
| 20260504042020 | 93 | 308 | 1.7 | 20.9 | 0.00 | 0.00 | 0.00 | 100 | 1012.1 |
| 20260504041020 | 92 | 312 | 2.6 | 38.2 | 0.00 | 0.00 | 0.00 | 100 | 1012.1 |
| 20260504040016 | 91 | 324 | 2.6 | 38.2 | 0.00 | 0.00 | 0.00 | 100 | 1012.3 |
| 20260504035016 | 91 | 318 | 2.6 | 38.2 | 0.00 | 0.00 | 0.00 | 100 | 1012.4 |
| 20260504034017 | 91 | 309 | 2.6 | 37.4 | 0.00 | 0.00 | 0.00 | 100 | 1012.5 |
| 20260504033039 | 91 | 308 | 2.6 | 41.7 | 0.00 | 0.00 | 0.00 | 100 | 1012.6 |
| 20260504032019 | 91 | 313 | 1.7 | 35.6 | 0.00 | 0.00 | 0.00 | 100 | 1012.6 |
| 20260504031020 | 91 | 328 | 2.6 | 39.1 | 0.00 | 0.00 | 0.00 | 100 | 1012.7 |
| 20260504030016 | 90 | 309 | 2.6 | 38.2 | 0.00 | 0.00 | 0.00 | 100 | 1012.7 |
| 20260504025016 | 90 | 313 | 2.6 | 37.4 | 0.00 | 0.00 | 0.00 | 100 | 1012.6 |
| 20260504024018 | 89 | 312 | 2.6 | 36.5 | 0.00 | 0.00 | 0.00 | 100 | 1012.6 |
| 20260504023019 | 89 | 325 | 2.6 | 36.5 | 0.00 | 0.00 | 0.00 | 100 | 1012.5 |
| 20260504022019 | 89 | 311 | 1.7 | 33.0 | 0.00 | 0.00 | 0.00 | 100 | 1012.4 |
| 20260504021019 | 88 | 314 | 2.6 | 38.2 | 0.00 | 0.00 | 0.00 | 100 | 1012.4 |
| 20260504020016 | 87 | 333 | 2.6 | 37.4 | 0.00 | 0.00 | 0.00 | 100 | 1012.3 |
| 20260504015016 | 87 | 321 | 2.6 | 37.4 | 0.00 | 0.00 | 0.00 | 100 | 1012.2 |